Llano, TX

5:43 PM CDT on October 01, 2016 (GMT -0500)
Llano

Weather History for KAQO - November, 2013

Change the Weather History Date:

Friday, November 22, 2013

  Actual Average (KBMQ) Record (KBMQ)
Temperature  
Mean Temperature 43 °F -  
Max Temperature 53 °F 64 °F 79 °F (2010)
Min Temperature 33 °F 44 °F 33 °F (2013)
Degree Days  
Heating Degree Days 22    
Moisture  
Dew Point 34 °F    
Average Humidity 90    
Maximum Humidity 93    
Minimum Humidity 81    
Precipitation  
Precipitation 0.24 in - - ()
Sea Level Pressure  
Sea Level Pressure 30.39 in    
Wind  
Wind Speed 14 mph (North)    
Max Wind Speed 20 mph    
Max Gust Speed 30 mph    
Visibility 8 miles    
Events Rain , Thunderstorm    
Averages and records for this station are not official NWS values.
T = Trace of Precipitation, MM = Missing Value Source: NWS Daily Summary

Daily Weather History Graph

Daily Weather History Graph

Search for Another Location

Airport or City:

Trip Planner

Search our weather history database for the weather conditions in past years. The results will help you decide how hot, cold, wet, or windy it might be!

Date:

Astronomy

Nov. 22, 2013 Rise Set
Actual Time 7:07 AM CST 5:34 PM CST
Civil Twilight 6:41 AM CST 6:00 PM CST
Nautical Twilight 6:12 AM CST 6:29 PM CST
Astronomical Twilight 5:43 AM CST 6:58 PM CST
Moon 10:02 PM CST (11/22) 10:55 AM CST (11/22)
Length of Visible Light 11h 18m
Length of Day
10h 26m
Waning Gibbous, 78% of the Moon is Illuminated
Nov 22
Waning Gibbous
Nov 25
Last Quarter
Dec 2
New
Dec 9
First Quarter
Dec 17
Full

Hourly Weather History & Observations

Time (CST) Temp. Windchill Dew Point Humidity Pressure Visibility Wind Dir Wind Speed Gust Speed Precip Events Conditions
12:15 AM 53.6 °F - 48.2 °F 82% 30.19 in 5.0 mi North 17.3 mph 24.2 mph 0.03 in Thunderstorm Light Drizzle
12:35 AM 50.0 °F - 46.4 °F 87% 30.19 in 10.0 mi NNW 16.1 mph 29.9 mph 0.06 in Rain Light Rain
12:55 AM 48.2 °F - 46.4 °F 93% 30.20 in 9.0 mi NNW 18.4 mph 24.2 mph 0.06 in Thunderstorm Light Drizzle
1:15 AM 46.4 °F 40.4 °F 44.6 °F 93% 30.22 in 10.0 mi North 13.8 mph - N/A   Overcast
1:35 AM 46.4 °F 40.7 °F 44.6 °F 93% 30.21 in 10.0 mi North 12.7 mph - N/A Thunderstorm Overcast
1:55 AM 46.4 °F 40.1 °F 42.8 °F 87% 30.23 in 9.0 mi North 15.0 mph 18.4 mph N/A Thunderstorm Overcast
2:15 AM 44.6 °F 39.7 °F 41.0 °F 87% 30.26 in 10.0 mi North 9.2 mph - N/A   Overcast
2:35 AM 44.6 °F 36.9 °F 39.2 °F 81% 30.26 in 10.0 mi NNE 18.4 mph 25.3 mph N/A   Overcast
2:55 AM 42.8 °F 36.2 °F 39.2 °F 87% 30.27 in 10.0 mi North 12.7 mph - N/A   Overcast
3:15 AM 42.8 °F 35.8 °F 39.2 °F 87% 30.28 in 10.0 mi North 13.8 mph 25.3 mph N/A   Overcast
3:35 AM 42.8 °F 36.6 °F 39.2 °F 87% 30.30 in 10.0 mi North 11.5 mph 18.4 mph N/A   Overcast
3:55 AM 41.0 °F 33.5 °F 37.4 °F 87% 30.28 in 10.0 mi North 13.8 mph - N/A   Overcast
4:15 AM 41.0 °F 34.7 °F 37.4 °F 87% 30.31 in 10.0 mi North 10.4 mph 18.4 mph N/A   Overcast
4:35 AM 39.2 °F 30.8 °F 37.4 °F 93% 30.30 in 10.0 mi North 15.0 mph 20.7 mph N/A Thunderstorm Overcast
4:55 AM 39.2 °F 33.0 °F 35.6 °F 87% 30.31 in 9.0 mi North 9.2 mph 20.7 mph N/A Rain , Thunderstorm Thunderstorms and Rain
5:15 AM 39.2 °F 33.0 °F 35.6 °F 87% 30.31 in 8.0 mi NNE 9.2 mph 19.6 mph 0.01 in Thunderstorm Thunderstorm
5:35 AM 37.4 °F 30.3 °F 35.6 °F 93% 30.33 in 5.0 mi North 10.4 mph - 0.01 in Rain Light Rain
5:55 AM 37.4 °F 29.8 °F 35.6 °F 93% 30.33 in 8.0 mi North 11.5 mph 16.1 mph 0.01 in Rain Light Rain
6:15 AM 37.4 °F 28.5 °F 35.6 °F 93% 30.33 in 10.0 mi North 15.0 mph - N/A   Overcast
6:35 AM 37.4 °F 28.9 °F 33.8 °F 87% 30.35 in 10.0 mi North 13.8 mph - 0.01 in   Overcast
6:55 AM 37.4 °F 29.3 °F 33.8 °F 87% 30.37 in 10.0 mi North 12.7 mph 20.7 mph 0.01 in   Overcast
7:15 AM 37.4 °F 27.8 °F 33.8 °F 87% 30.36 in 10.0 mi North 17.3 mph - N/A   Overcast
7:35 AM 37.4 °F 29.8 °F 33.8 °F 87% 30.39 in 10.0 mi North 11.5 mph - N/A   Overcast
7:55 AM 37.4 °F 30.3 °F 33.8 °F 87% 30.40 in 5.0 mi North 10.4 mph - N/A   Light Drizzle
8:15 AM 37.4 °F 31.4 °F 33.8 °F 87% 30.42 in 4.0 mi NNW 8.1 mph 16.1 mph N/A   Light Drizzle
8:35 AM 37.4 °F 28.9 °F 33.8 °F 87% 30.42 in 5.0 mi North 13.8 mph 18.4 mph N/A   Overcast
8:55 AM 35.6 °F 27.1 °F 33.8 °F 93% 30.43 in 2.5 mi North 12.7 mph 19.6 mph N/A   Overcast
9:15 AM 35.6 °F 27.5 °F 33.8 °F 93% 30.44 in 2.5 mi North 11.5 mph 23.0 mph N/A   Overcast
9:35 AM 35.6 °F 27.1 °F 33.8 °F 93% 30.45 in 3.0 mi North 12.7 mph - N/A   Overcast
9:55 AM 35.6 °F 27.1 °F 33.8 °F 93% 30.44 in 5.0 mi North 12.7 mph - N/A   Overcast
10:15 AM 35.6 °F 26.6 °F 33.8 °F 93% 30.45 in 6.0 mi North 13.8 mph 18.4 mph N/A   Overcast
10:35 AM 35.6 °F 26.2 °F 33.8 °F 93% 30.45 in 8.0 mi North 15.0 mph 20.7 mph N/A   Overcast
10:55 AM 35.6 °F 27.1 °F 32.0 °F 87% 30.45 in 8.0 mi North 12.7 mph 19.6 mph N/A   Overcast
11:15 AM 35.6 °F 27.1 °F 32.0 °F 87% 30.46 in 8.0 mi North 12.7 mph 21.9 mph N/A   Overcast
11:35 AM 35.6 °F 27.1 °F 32.0 °F 87% 30.46 in 7.0 mi North 12.7 mph 26.5 mph N/A   Overcast
11:55 AM 35.6 °F 26.6 °F 32.0 °F 87% 30.45 in 5.0 mi North 13.8 mph 20.7 mph N/A   Overcast
12:15 PM 35.6 °F 26.6 °F 32.0 °F 87% 30.45 in 7.0 mi North 13.8 mph 23.0 mph N/A   Overcast
12:35 PM 35.6 °F 25.5 °F 32.0 °F 87% 30.44 in 8.0 mi North 17.3 mph 20.7 mph N/A   Overcast
12:55 PM 35.6 °F 24.8 °F 32.0 °F 87% 30.42 in 10.0 mi North 19.6 mph 23.0 mph N/A   Overcast
1:15 PM 35.6 °F 25.5 °F 32.0 °F 87% 30.41 in 10.0 mi North 17.3 mph - N/A   Overcast
1:35 PM 35.6 °F 28.0 °F 32.0 °F 87% 30.41 in 10.0 mi NNW 10.4 mph - N/A   Overcast
1:55 PM 35.6 °F 26.6 °F 32.0 °F 87% 30.40 in 10.0 mi North 13.8 mph 18.4 mph N/A   Overcast
2:15 PM 35.6 °F 26.2 °F 32.0 °F 87% 30.40 in 10.0 mi North 15.0 mph 18.4 mph N/A   Overcast
2:35 PM 35.6 °F 26.6 °F 32.0 °F 87% 30.41 in 10.0 mi North 13.8 mph 20.7 mph N/A Rain Light Rain
2:55 PM 33.8 °F 23.9 °F 32.0 °F 93% 30.41 in 6.0 mi North 15.0 mph 20.7 mph N/A   Light Drizzle
3:15 PM 33.8 °F 23.9 °F 32.0 °F 93% 30.41 in 7.0 mi North 15.0 mph - N/A Rain Light Rain
3:35 PM 33.8 °F 25.3 °F 32.0 °F 93% 30.40 in 1.2 mi North 11.5 mph - N/A   Overcast
3:55 PM 33.8 °F 27.0 °F 32.0 °F 93% 30.41 in 2.0 mi North 8.1 mph - 0.02 in   Overcast
4:15 PM 33.8 °F 24.3 °F 32.0 °F 93% 30.42 in 10.0 mi NNW 13.8 mph - 0.02 in   Overcast
4:35 PM 33.8 °F 25.8 °F 32.0 °F 93% 30.42 in 10.0 mi North 10.4 mph - 0.03 in   Overcast
4:55 PM 33.8 °F 23.2 °F 32.0 °F 93% 30.42 in 10.0 mi North 17.3 mph - 0.04 in   Overcast
5:15 PM 33.8 °F 24.3 °F 32.0 °F 93% 30.43 in 10.0 mi North 13.8 mph 21.9 mph 0.01 in   Overcast
5:35 PM 33.8 °F 23.9 °F 32.0 °F 93% 30.43 in 10.0 mi North 15.0 mph 19.6 mph 0.01 in   Overcast
5:55 PM 33.8 °F 24.8 °F 32.0 °F 93% 30.43 in 10.0 mi North 12.7 mph 19.6 mph 0.01 in   Overcast
6:15 PM 33.8 °F 24.8 °F 32.0 °F 93% 30.45 in 10.0 mi North 12.7 mph - N/A   Overcast
6:35 PM 33.8 °F 26.4 °F 32.0 °F 93% 30.45 in 10.0 mi North 9.2 mph 18.4 mph N/A   Overcast
6:55 PM 33.8 °F 23.2 °F 32.0 °F 93% 30.45 in 10.0 mi North 17.3 mph 21.9 mph N/A   Overcast
7:15 PM 33.8 °F 24.8 °F 32.0 °F 93% 30.45 in 10.0 mi North 12.7 mph - N/A   Overcast
7:35 PM 33.8 °F 25.8 °F 32.0 °F 93% 30.46 in 10.0 mi North 10.4 mph - N/A   Overcast
7:55 PM 33.8 °F 24.8 °F 32.0 °F 93% 30.46 in 10.0 mi North 12.7 mph - N/A   Overcast
8:15 PM 33.8 °F 24.8 °F 32.0 °F 93% 30.46 in 10.0 mi NNW 12.7 mph - N/A   Overcast
8:35 PM 33.8 °F 25.8 °F 32.0 °F 93% 30.46 in 1.0 mi North 10.4 mph - 0.01 in   Overcast
8:55 PM 33.8 °F 26.4 °F 32.0 °F 93% 30.46 in 5.0 mi North 9.2 mph - 0.04 in   Overcast
9:15 PM 33.8 °F 25.8 °F 32.0 °F 93% 30.46 in 8.0 mi North 10.4 mph - 0.01 in   Drizzle
9:35 PM 33.8 °F 26.4 °F 32.0 °F 93% 30.46 in 3.0 mi North 9.2 mph - 0.03 in   Light Drizzle
9:55 PM 33.8 °F 27.0 °F 32.0 °F 93% 30.46 in 9.0 mi North 8.1 mph - 0.05 in   Overcast
10:15 PM 33.8 °F 26.4 °F 32.0 °F 93% 30.46 in 10.0 mi North 9.2 mph - N/A   Overcast
10:35 PM 33.8 °F 25.3 °F 32.0 °F 93% 30.48 in 10.0 mi North 11.5 mph - N/A   Overcast
10:55 PM 33.8 °F 25.3 °F 32.0 °F 93% 30.47 in 10.0 mi North 11.5 mph - N/A   Light Drizzle
11:15 PM 33.8 °F 24.8 °F 32.0 °F 93% 30.47 in 10.0 mi North 12.7 mph - N/A   Overcast
11:35 PM 33.8 °F 25.8 °F 32.0 °F 93% 30.46 in 10.0 mi North 10.4 mph - N/A   Overcast
11:55 PM 33.8 °F 27.0 °F 32.0 °F 93% 30.46 in 10.0 mi NNW 8.1 mph - N/A   Overcast